Flag for Brazil Weather past 2 weeks in Campo Grande, Mato Grosso Do Sul, Brazil

Now
86 °F

Passing clouds.


Feels Like: 84 °F
Forecast: 67 / 87 °F
Wind: 12 mph from North

Location: Campo Grande Aeroporto

Current Time: Aug 1, 2015 at 12:43:58 PM

Latest Report: Aug 1, 2015 at 12:00 PM


Visibility: N/A

Pressure: 30.07 "Hg (28.37 "Hg at 516m altitude)

Humidity: 31%

Dew point: 52 °F

Location of Campo GrandeLocation

Historic Weather in Campo Grande — Graph

°F

Campo Grande temperature yesterday

Maximum temperature yesterday: 86 °F (at 1:00 PM)
Minimum temperature yesterday: 70 °F (at 1:00 AM)
Average temperature yesterday: 76 °F

Past Weeks' High & Low Weather Summary

 TemperatureHumidityPressure
High88 °F (Jul 29, 3:00 PM)94% (Jul 21, 12:00 AM)30.21 "Hg (Jul 21, 12:00 AM)
Low52 °F (Jul 22, 1:00 AM)21% (Aug 1, 12:00 AM)29.98 "Hg (Jul 19, 2:00 PM)
Average71 °F63%30.08 "Hg
* Reported Jul 17 11:00 AM — Aug 1 11:00 AM, Campo Grande, Weather by CustomWeather, © 2015

Note: Actual official high and low records may vary slightly from our data, if they occured in-between our weather recording intervals... More about our weather records

Advertising

Campo Grande weather history for previous 24 hours

 ConditionsComfort  
Time TempWeatherWind HumidityBarometerVisibility
11:00 AM
Sat, Aug 1
84 °FPassing clouds.9 mph31%30.12 "HgN/A
10:00 AM82 °FPassing clouds.12 mph37%30.12 "HgN/A
9:00 AM79 °FPassing clouds.12 mph45%30.12 "HgN/A
8:00 AM75 °FPassing clouds.12 mph44%30.09 "HgN/A
7:00 AM68 °FSunny.10 mph56%30.09 "Hg10 mi
6:00 AM64 °FSunny.8 mph64%30.07 "Hg10 mi
5:00 AM64 °FClear.9 mph64%30.07 "Hg10 mi
4:00 AM64 °FClear.8 mph64%30.07 "Hg10 mi
3:00 AM66 °FClear.8 mph60%30.07 "Hg10 mi
2:00 AM66 °FClear.7 mph60%30.07 "Hg10 mi
1:00 AM66 °FClear.6 mph56%30.09 "Hg10 mi
12:00 AM70 °FClear.9 mph21%30.09 "Hg10 mi
11:00 PM
Fri, Jul 31
70 °FClear.8 mph50%30.09 "Hg10 mi
10:00 PM70 °FClear.8 mph53%30.09 "Hg10 mi
9:00 PM70 °FClear.7 mph53%30.07 "Hg10 mi
8:00 PM70 °FPassing clouds.7 mph57%30.07 "HgN/A
7:00 PM70 °FClear.5 mph57%30.04 "Hg10 mi
6:00 PM73 °FPassing clouds.9 mph50%30.01 "HgN/A
5:00 PM82 °FClear.7 mph35%30.01 "Hg10 mi
4:00 PM84 °FSunny.12 mph33%29.98 "Hg10 mi
3:00 PM86 °FPassing clouds.14 mph31%30.01 "HgN/A
2:00 PM86 °FPassing clouds.12 mph31%30.01 "HgN/A
1:00 PM86 °FPassing clouds.15 mph29%30.04 "HgN/A
12:00 PM84 °FSunny.14 mph33%30.07 "Hg10 mi
Weather by CustomWeather, © 2015

See weather overviewHow to use our weather pages